Weather History for KCGS - April, 2014

Change the Weather History Date:

Monday, April 7, 2014

  Actual Average Record
Temperature  
Mean Temperature 47 °F -  
Max Temperature 53 °F 60 °F 82 °F (1991)
Min Temperature 41 °F 37 °F 22 °F (1982)
Degree Days  
Heating Degree Days 18    
Moisture  
Dew Point 42 °F    
Average Humidity 85    
Maximum Humidity 100    
Minimum Humidity 49    
Precipitation  
Precipitation 0.00 in - - ()
Sea Level Pressure  
Sea Level Pressure 29.95 in    
Wind  
Wind Speed 1 mph (ENE)    
Max Wind Speed 9 mph    
Max Gust Speed 24 mph    
Visibility 6 miles    
Events      
Averages and records for this station are not official NWS values.
T = Trace of Precipitation, MM = Missing Value Source: NWS Daily Summary

Daily Weather History Graph

Daily Weather History Graph

Search for Another Location

Airport or City:

Trip Planner

Search our weather history database for the weather conditions in past years. The results will help you decide how hot, cold, wet, or windy it might be!

Date:

Astronomy

Apr. 07, 2014 Rise Set
Actual Time 6:43 AM EDT 7:37 PM EDT
Civil Twilight 6:15 AM EDT 8:04 PM EDT
Nautical Twilight 5:43 AM EDT 8:36 PM EDT
Astronomical Twilight 5:10 AM EDT 9:10 PM EDT
Moon 12:38 PM EDT (4/7) 2:11 AM EDT (4/7)
Length of Visible Light 13h 48m
Length of Day
12h 54m
First Quarter, 53% of the Moon is Illuminated
Apr 7
First Quarter
Apr 15
Full
Apr 22
Last Quarter
Apr 29
New
May 6
First Quarter

Hourly Weather History & Observations

Time (EDT) Temp. Windchill Dew Point Humidity Pressure Visibility Wind Dir Wind Speed Gust Speed Precip Events Conditions
12:05 AM 44.6 °F - 26.6 °F 49% 30.19 in 10.0 mi Calm Calm - N/A   Clear
12:25 AM 42.8 °F - 28.4 °F 57% 30.18 in 10.0 mi Calm Calm - N/A   Clear
12:45 AM 42.8 °F - 30.2 °F 61% 30.18 in 10.0 mi Calm Calm - N/A   Clear
1:05 AM 42.8 °F - 30.2 °F 61% 30.17 in 10.0 mi Calm Calm - N/A   Clear
1:25 AM 42.8 °F - 30.2 °F 61% 30.17 in 10.0 mi Calm Calm - N/A   Clear
1:45 AM 41.0 °F - 30.2 °F 65% 30.16 in 10.0 mi Calm Calm - N/A   Clear
2:05 AM 41.0 °F - 30.2 °F 65% 30.16 in 10.0 mi Calm Calm - N/A   Clear
2:25 AM 41.0 °F - 30.2 °F 65% 30.15 in 10.0 mi Calm Calm - N/A   Clear
2:45 AM 41.0 °F - 30.2 °F 65% 30.15 in 10.0 mi Calm Calm - N/A   Clear
3:05 AM 41.0 °F - 30.2 °F 65% 30.14 in 10.0 mi Calm Calm - N/A   Clear
3:25 AM 41.0 °F - 28.4 °F 61% 30.14 in 10.0 mi Calm Calm - N/A   Clear
3:45 AM 41.0 °F - 30.2 °F 65% 30.14 in 10.0 mi Calm Calm - N/A   Clear
4:05 AM 41.0 °F - 30.2 °F 65% 30.13 in 10.0 mi Calm Calm - N/A   Scattered Clouds
4:25 AM 41.0 °F - 30.2 °F 65% 30.13 in 10.0 mi Calm Calm - N/A   Mostly Cloudy
4:45 AM 41.0 °F - 32.0 °F 70% 30.13 in 10.0 mi Calm Calm - N/A   Mostly Cloudy
5:05 AM 41.0 °F - 32.0 °F 70% 30.12 in 10.0 mi Calm Calm - N/A   Mostly Cloudy
5:25 AM 42.8 °F - 32.0 °F 66% 30.11 in 10.0 mi Calm Calm - N/A   Overcast
5:45 AM 42.8 °F - 32.0 °F 66% 30.11 in 10.0 mi Calm Calm - N/A   Overcast
6:05 AM 42.8 °F - 32.0 °F 66% 30.12 in 10.0 mi Calm Calm - N/A   Overcast
6:25 AM 44.6 °F - 33.8 °F 66% 30.13 in 10.0 mi Calm Calm - N/A   Overcast
6:45 AM 44.6 °F - 33.8 °F 66% 30.13 in 10.0 mi Calm Calm - N/A   Overcast
7:05 AM 44.6 °F - 35.6 °F 71% 30.14 in 10.0 mi Calm Calm - N/A   Overcast
7:25 AM 44.6 °F - 37.4 °F 76% 30.15 in 10.0 mi Calm Calm - N/A   Overcast
7:45 AM 42.8 °F - 39.2 °F 87% 30.14 in 10.0 mi Calm Calm - N/A   Overcast
8:00 AM 44.6 °F 43.1 °F 41.0 °F 87% 30.13 in 7.0 mi ENE 3.5 mph - N/A   Overcast
8:25 AM 42.8 °F - 37.4 °F 81% 30.12 in 10.0 mi Calm Calm - N/A   Overcast
8:45 AM 42.8 °F 41.1 °F 37.4 °F 81% 30.12 in 10.0 mi ENE 3.5 mph - N/A   Overcast
9:05 AM 42.8 °F 40.1 °F 37.4 °F 81% 30.11 in 10.0 mi ENE 4.6 mph - N/A   Overcast
9:25 AM 42.8 °F - 37.4 °F 81% 30.11 in 7.0 mi Calm Calm - N/A   Overcast
9:45 AM 42.8 °F 41.1 °F 37.4 °F 81% 30.10 in 7.0 mi ENE 3.5 mph - N/A   Overcast
10:05 AM 41.0 °F 39.0 °F 37.4 °F 87% 30.09 in 10.0 mi ENE 3.5 mph - N/A   Overcast
10:25 AM 41.0 °F 37.1 °F 37.4 °F 87% 30.09 in 7.0 mi NE 5.8 mph - N/A   Overcast
10:45 AM 41.0 °F 37.1 °F 37.4 °F 87% 30.09 in 5.0 mi NE 5.8 mph - N/A   Overcast
11:05 AM 41.0 °F - 39.2 °F 93% 30.08 in 4.0 mi Calm Calm - N/A   Overcast
11:25 AM 41.0 °F 39.0 °F 39.2 °F 93% 30.07 in 5.0 mi NNE 3.5 mph - N/A   Overcast
11:45 AM 41.0 °F 38.0 °F 39.2 °F 93% 30.06 in 5.0 mi ENE 4.6 mph - N/A   Overcast
12:05 PM 41.0 °F 38.0 °F 41.0 °F 100% 30.04 in 5.0 mi NE 4.6 mph - N/A   Overcast
12:25 PM 42.8 °F 41.1 °F 41.0 °F 93% 30.02 in 5.0 mi ENE 3.5 mph - N/A   Overcast
12:45 PM 42.8 °F - 42.8 °F 100% 30.01 in 5.0 mi Calm Calm - N/A   Overcast
1:05 PM 44.6 °F 42.2 °F 42.8 °F 93% 29.96 in 4.0 mi East 4.6 mph - N/A   Overcast
1:25 PM 44.6 °F 40.7 °F 42.8 °F 93% 29.95 in 5.0 mi East 6.9 mph - N/A   Overcast
1:45 PM 46.4 °F 43.5 °F 44.6 °F 93% 29.89 in 4.0 mi East 5.8 mph - N/A   Overcast
2:05 PM 48.2 °F - 46.4 °F 93% 29.84 in 5.0 mi ESE 9.2 mph 16.1 mph N/A   Overcast
2:25 PM 50.0 °F - 50.0 °F 100% 29.80 in 7.0 mi ESE 8.1 mph 24.2 mph N/A   Overcast
2:45 PM 51.8 °F - 50.0 °F 94% 29.86 in 10.0 mi SSE 5.8 mph - N/A   Overcast
3:10 PM 51.8 °F - 50.0 °F 94% 29.85 in 1.2 mi WSW 3.5 mph - N/A   Overcast
3:30 PM 51.8 °F - 51.8 °F 100% 29.83 in 2.0 mi NNE 3.5 mph - N/A   Overcast
3:50 PM 51.8 °F - 51.8 °F 100% 29.83 in 2.5 mi Calm Calm - N/A   Overcast
4:10 PM 51.8 °F - 51.8 °F 100% 29.84 in 2.0 mi Calm Calm - N/A   Overcast
4:30 PM 51.8 °F - 51.8 °F 100% 29.79 in 2.0 mi NNE 4.6 mph - N/A   Overcast
4:50 PM 51.8 °F - 51.8 °F 100% 29.78 in 2.0 mi NNE 3.5 mph - N/A   Overcast
5:10 PM 51.8 °F - 51.8 °F 100% 29.76 in 2.5 mi North 4.6 mph - N/A   Overcast
5:30 PM 51.8 °F - 51.8 °F 100% 29.76 in 2.0 mi NNE 3.5 mph - N/A   Overcast
5:50 PM 51.8 °F - 51.8 °F 100% 29.76 in 2.0 mi Calm Calm - N/A   Overcast
6:10 PM 51.8 °F - 51.8 °F 100% 29.72 in 2.0 mi NE 4.6 mph - N/A   Overcast
6:30 PM 51.8 °F - 51.8 °F 100% 29.73 in 1.8 mi Calm Calm - N/A   Overcast
6:50 PM 51.8 °F - 51.8 °F 100% 29.70 in 2.0 mi Calm Calm - N/A   Overcast
7:10 PM 51.8 °F - 51.8 °F 100% 29.70 in 1.5 mi Calm Calm - N/A   Overcast
7:30 PM 51.8 °F - 51.8 °F 100% 29.68 in 1.2 mi Calm Calm - N/A   Overcast
7:50 PM 51.8 °F - 51.8 °F 100% 29.68 in 2.0 mi NE 3.5 mph - N/A   Overcast
8:10 PM 51.8 °F - 51.8 °F 100% 29.69 in 1.8 mi Calm Calm - N/A   Overcast
8:30 PM 51.8 °F - 51.8 °F 100% 29.69 in 1.2 mi Calm Calm - N/A   Overcast
8:50 PM 51.8 °F - 51.8 °F 100% 29.69 in 1.2 mi Calm Calm - N/A   Overcast
9:10 PM 51.8 °F - 51.8 °F 100% 29.70 in 1.8 mi Calm Calm - N/A   Overcast
9:30 PM 51.8 °F - 51.8 °F 100% 29.70 in 1.5 mi Calm Calm - N/A   Overcast
9:50 PM 51.8 °F - 51.8 °F 100% 29.70 in 1.5 mi South 3.5 mph - N/A   Overcast
10:10 PM 53.6 °F - 53.6 °F 100% 29.70 in 3.0 mi South 5.8 mph - N/A   Overcast
10:30 PM 53.6 °F - 53.6 °F 100% 29.69 in 7.0 mi South 4.6 mph - N/A   Overcast
10:50 PM 53.6 °F - 51.8 °F 94% 29.67 in 10.0 mi South 8.1 mph - N/A   Overcast
11:10 PM 53.6 °F - 51.8 °F 94% 29.65 in 10.0 mi South 6.9 mph - N/A   Overcast
11:30 PM 53.6 °F - 51.8 °F 94% 29.65 in 10.0 mi South 6.9 mph - N/A   Overcast
11:50 PM 53.6 °F - 51.8 °F 94% 29.64 in 10.0 mi South 3.5 mph - N/A   Overcast